Regional Weather Roundup
Issued by NWS

Home | Current Version | Previous Version | Graphics & Text | Print | Product List | Glossary Off
Versions: 1 2 3 4 5 6 7 8 9 10 11 12 13 14 15 16 17 18 19 20 21 22 23 24 25 26 27

000
ASUS45 KBOU 201007
RWRCO

WEATHER ROUNDUP FOR COLORADO
NATIONAL WEATHER SERVICE DENVER/BOULDER CO
300 AM MST MON FEB 20 2017

NOTE: "FAIR" INDICATES FEW OR NO CLOUDS BELOW 12000 FEET WITH NO
SIGNIFICANT WEATHER AND/OR OBSTRUCTIONS TO VISIBILITY.

COZ001>005-013-030-031-201100-
...NORTHWEST COLORADO...

CITY           SKY/WX    TMP DP  RH WIND       PRES   REMARKS
CRAIG          CLOUDY    30  28  92 E3        30.02R
HAYDEN         MOCLDY    25  21  86 CALM      30.01S VSB<1/4
MEEKER         CLOUDY    30  29  96 SE5       30.04R WCI  25
MOUNT WERNER   NOT AVBL
STEAMBOAT SPGS CLOUDY    29  28  94 CALM      30.01R
WALDEN         NOT AVBL
$$

COZ006>008-011-201100-
...WEST CENTRAL VALLEYS...

CITY           SKY/WX    TMP DP  RH WIND       PRES   REMARKS
GRAND JUNCTION CLOUDY    39  39 100 E3        30.04R
MONTROSE       FAIR      32  31  96 SE7       30.07S WCI  26
EAGLE          CLOUDY    32  31  96 NE3       30.06R
RIFLE          CLOUDY    37  35  92 SE7       30.04R
DELTA          CLOUDY    40  38  94 CALM      30.07R
NUCLA          MOCLDY    34  32  93 E7        30.10S WCI  28
$$

COZ017>023-064>068-201100-
...SOUTHWEST COLORADO...

CITY           SKY/WX    TMP DP  RH WIND       PRES   REMARKS
DURANGO        FAIR      29  26  89 N5        30.02R WCI  24
CORTEZ         CLOUDY    37  35  92 E3        30.07R
PAGOSA SPRINGS CLOUDY    31  31 100 CALM      30.04R
TELLURIDE      NOT AVBL
WOLF CREEK PAS FAIR      14  14 100 NW7G17    30.09R WCI   4
$$

COZ009-010-012-014-032>034-037-058>063-201100-
...CENTRAL COLORADO...

CITY           SKY/WX    TMP DP  RH WIND       PRES   REMARKS
ASPEN          CLOUDY    30  28  92 W3        30.03R
BUENA VISTA    FAIR      32  17  54 NW10G16   29.96R WCI  24
COPPER MTN     CLOUDY    19  14  79 MISG      29.98R
BERTHOUD PASS  HVY SNOW  10   1  67 MISG      29.85F VSB 1/4
COTTONWOOD PAS FAIR      30  14  51 W13G24    29.97R WCI  20
GUNNISON       FAIR      30  26  85 W12       30.02R WCI  20
KREMMLING      FAIR      28  23  80 SW3       30.01S
LEADVILLE      CLOUDY    20  14  77 N12       29.97R WCI   8
MONARCH PASS   FOG       18  14  86 W23G29    30.09R VSB 3/4 WCI   0
SALIDA         FAIR      37  22  56 NW7       30.03R
SUNLIGHT       NOT AVBL
WILKERSON PASS FAIR      18  10  73 NW17G35   29.94R WCI   2
$$

COZ069>075-201100-
...SAN LUIS VALLEY/SANGRE DE CRISTO MOUNTAINS...

CITY           SKY/WX    TMP DP  RH WIND       PRES   REMARKS
ALAMOSA        CLOUDY    28  24  85 CALM      29.96R
LA VETA PASS   FAIR      23  19  86 NE31G38   29.92R WCI   5
SAGUACHE       FAIR      34  21  60 NW9G21    29.97R WCI  26
$$

COZ035-036-038>040-201100-
...NORTHERN COLORADO FRONT RANGE...

CITY           SKY/WX    TMP DP  RH WIND       PRES   REMARKS
DENVER INTL AP FAIR      39  19  44 N5        29.84R
DMNS CITY PARK   N/A     42  13  31 W9        29.85R
AURORA         PTCLDY    35  27  73 SE9       29.86R WCI  28
FRONT RANGE AP FAIR      37  21  52 NW3       29.85R
ERIE MUNI ARPT FAIR      46  11  25 NW10G18   29.83R
BOULDER MUN AP FAIR      46  12  25 NW15G28   29.81R
CENTENNIAL     FAIR      41  15  35 NW10G17   29.85R
BROOMFIELD     FAIR      37  16  41 W8        29.84R
FORT COLLINS   FAIR      42  17  36 VRB5      29.81R
LONGMONT       FAIR      45  24  43 W6        29.83R
$$

COZ041-046-047-076>085-087-088-201100-
...PIKES PEAK/PALMER DIVIDE AND SOUTHERN FOOTHILLS...

CITY           SKY/WX    TMP DP  RH WIND       PRES   REMARKS
COLO. SPRINGS  FAIR      37  25  61 N14       29.85R
A. F. ACADEMY  FAIR      34  18  52 N12       29.85R WCI  25
SCHRIEVER AFB  FAIR      37  31  80 N14G22    29.85R
ELLICOTT       FAIR     N/A N/A N/A N9        29.83R
FALCON         FAIR      34  32  92 N10       29.86R WCI  26
FORT CARSON    FAIR      40  24  53 E3        29.84R
LIMON          MOCLDY    40  25  55 N12       29.82R
MONUMENT HILL  FAIR      30  23  74 NW7       29.87R WCI  23
TRINIDAD       FAIR      38  19  46 NW8       29.85R
$$

COZ042>045-048>051-090-091-201100-
...NORTHEAST COLORADO...

CITY           SKY/WX    TMP DP  RH WIND       PRES   REMARKS
GREELEY ARPT   FAIR      44  19  36 NW18G28   29.82R
AKRON          FAIR      44  19  36 NW22G30   29.80R
BURLINGTON     FAIR      49  29  46 N28G35    29.75R
WRAY           NOT AVBL
STERLING       MOCLDY    48  19  32 NW23      29.78R
HOLYOKE        CLOUDY    54  30  40 W20G25    29.76R
FORT MORGAN    FAIR      44  17  34 NW16G23   29.83R
$$

COZ086-089-092>099-201100-
...SOUTHEAST COLORADO...

CITY           SKY/WX    TMP DP  RH WIND       PRES   REMARKS
PUEBLO         FAIR      45  21  38 NW10      29.81R
LA JUNTA       CLOUDY    51  32  48 NW20G25   29.82R
LAMAR          FAIR      42  28  57 W7        29.75R
SPRINGFIELD      N/A     44  28  53 NW21G28   29.76R
$$




USA.gov is the U.S. government's official web portal to all federal, state and local government web resources and services.